Location: Courçay
(47.2523°N, 0.8761°E)
Time: 21:24:49
(UTC+00:00)

AQUARIUS - Pass Details

Date: 18 November 2025
Orbit: 634 x 636 km, 98.0° (Epoch: 10 December)

Event Time Altitude Azimuth Distance (km) Brightness Sun altitude
Rises 17:41:46 0° 167° (SSE) 2,921 7.5 -14.1°
Reaches altitude 10° 17:43:58 10° 169° (SSE) 2,017 6.7 -14.5°
Maximum altitude 17:48:22 81° 256° (WSW) 649 4.2 -15.2°
Drops below altitude 10° 17:52:48 10° 345° (NNW) 2,032 6.7 -15.9°
Sets 17:55:01 0° 346° (NNW) 2,945 7.6 -16.3°
